This is the latest recevied weather packets stored in our database for station/object WC4PEM-9. If no packets are shown the sender has not sent any weather packets the latest 10 day(s).
| Time | Temp. | Humidity | Pressure | Rain* | Wind** | Luminosity | Snow |
|---|---|---|---|---|---|---|---|
| 1778016807 | 30.56° C | 50% | 1013.5 hPa | 0 mm | - | - | - |
| 1778016634 | 30.56° C | 51% | 1013.6 hPa | 0 mm | - | - | - |
| 1778016507 | 30.56° C | 51% | 1013.6 hPa | 0 mm | - | - | - |
| 1778016207 | 30.56° C | 49% | 1013.7 hPa | 0 mm | - | - | - |
| 1778015907 | 30.56° C | 48% | 1013.7 hPa | 0 mm | - | - | - |
| 1778015790 | 30.56° C | 47% | 1013.4 hPa | 0 mm | - | - | - |
| 1778015607 | 30.56° C | 47% | 1013.4 hPa | 0 mm | - | - | - |
| 1778015307 | 30.56° C | 48% | 1013.6 hPa | 0 mm | - | - | - |
| 1778015136 | 30.56° C | 46% | 1013.6 hPa | 0 mm | - | - | - |
| 1778015007 | 30.56° C | 46% | 1013.6 hPa | 0 mm | - | - | - |
| 1778014707 | 30.56° C | 46% | 1013.7 hPa | 0 mm | - | - | - |
| 1778014407 | 30.56° C | 49% | 1013.6 hPa | 0 mm | - | - | - |
| 1778014107 | 30.56° C | 47% | 1013.6 hPa | 0 mm | - | - | - |
| 1778013807 | 30.56° C | 48% | 1013.7 hPa | 0 mm | - | - | - |
| 1778013507 | 30.56° C | 49% | 1013.8 hPa | 0 mm | - | - | - |
| 1778013321 | 30.56° C | 47% | 1013.9 hPa | 0 mm | - | - | - |
| 1778013207 | 30.56° C | 47% | 1013.9 hPa | 0 mm | - | - | - |
| 1778013004 | 30.56° C | 46% | 1013.9 hPa | 0 mm | - | - | - |
| 1778012907 | 30.56° C | 46% | 1013.9 hPa | 0 mm | - | - | - |
| 1778012607 | 30.56° C | 48% | 1013.8 hPa | 0 mm | - | - | - |
| 1778012307 | 30° C | 48% | 1013.8 hPa | 0 mm | - | - | - |
| 1778012007 | 30° C | 47% | 1013.9 hPa | 0 mm | - | - | - |
| 1778011812 | 30° C | 50% | 1013.9 hPa | 0 mm | - | - | - |
| 1778011707 | 30° C | 50% | 1013.9 hPa | 0 mm | - | - | - |
| 1778011407 | 30° C | 48% | 1013.8 hPa | 0 mm | - | - | - |
* Rain latest hour (hover to see other rain measurements)
** Current wind speed in m/s (hover to see current wind gust speed)